^^
NorthLandsweather Station Historical Data
Daily Summary for April 16, 2019 Units:  Metric    English   Both
Daily Weekly Monthly Yearly Custom
  High: Low: Average:
Temperature: 20 °C 0.8 °C 9.9 °C
Dew Point: 3.6 °C -2.9 °C -0.3 °C
Humidity: 80% 24% 53%
Wind Speed: 13km/h 0km/h 2.3km/h
Wind Gust: 7.4km/h - -
Wind- - WSW
Pressure: 1016.1 hPa 1011.4 hPa -
Precipitation: 0 mm    
Historical Graphs
 
 
Tabular Data for April 16, 2019
Time Temperature Dew Point Pressure Wind Wind Speed Wind Gust Humidity Rainfall Rate (Hourly) solar
00:04 6.5 °C -2.4 °C 1012.1 hPa ESE 5.6 km/h 0.3 km/h 53% 0 mm 0.00 W/m2
00:09 6.6 °C -1.8 °C 1012.1 hPa Calm     55% 0 mm 0.00 W/m2
00:14 6.6 °C -1.1 °C 1012.1 hPa Calm   0.8 km/h 58% 0 mm 0.00 W/m2
00:19 6.5 °C -1.2 °C 1012.1 hPa ESE 1.6 km/h   58% 0 mm 0.00 W/m2
00:24 6.4 °C -1.7 °C 1012.1 hPa Calm     56% 0 mm 0.00 W/m2
00:29 6.4 °C -2 °C 1012.1 hPa Calm     55% 0 mm 0.00 W/m2
00:34 6.3 °C -1.6 °C 1012.1 hPa Calm     57% 0 mm 0.00 W/m2
00:39 6.3 °C -1.6 °C 1012.1 hPa Calm     57% 0 mm 0.00 W/m2
00:44 6.3 °C -1.6 °C 1012.1 hPa Calm     57% 0 mm 0.00 W/m2
00:49 6.2 °C -1.4 °C 1012.1 hPa Calm     58% 0 mm 0.00 W/m2
00:54 6.2 °C -1.2 °C 1012.1 hPa Calm     59% 0 mm 0.00 W/m2
00:59 6.2 °C -0.8 °C 1012.1 hPa Calm     61% 0 mm 0.00 W/m2
01:04 6.1 °C -0.7 °C 1012.1 hPa Calm     62% 0 mm 0.00 W/m2
01:09 6 °C -0.7 °C 1012.1 hPa Calm     62% 0 mm 0.00 W/m2
01:14 5.9 °C -0.8 °C 1012.1 hPa Calm     62% 0 mm 0.00 W/m2
01:19 5.8 °C -0.9 °C 1012.1 hPa Calm     62% 0 mm 0.00 W/m2
01:24 5.8 °C -0.7 °C 1012.1 hPa Calm     63% 0 mm 0.00 W/m2
01:29 5.8 °C -1.2 °C 1012.1 hPa Calm     61% 0 mm 0.00 W/m2
01:34 5.7 °C -0.8 °C 1012.1 hPa Calm     63% 0 mm 0.00 W/m2
01:39 5.6 °C -0.5 °C 1012.1 hPa Calm     65% 0 mm 0.00 W/m2
01:44 5.5 °C -0.3 °C 1012.1 hPa Calm     66% 0 mm 0.00 W/m2
01:49 5.4 °C -0.2 °C 1011.7 hPa Calm     67% 0 mm 0.00 W/m2
01:54 5.4 °C 0 °C 1011.7 hPa Calm     68% 0 mm 0.00 W/m2
01:59 5.3 °C 0.1 °C 1011.7 hPa Calm     69% 0 mm 0.00 W/m2
02:04 5.2 °C -0.1 °C 1011.7 hPa Calm     69% 0 mm 0.00 W/m2
02:09 5.1 °C -0.1 °C 1011.7 hPa Calm     69% 0 mm 0.00 W/m2
02:14 5.1 °C 0.1 °C 1011.7 hPa Calm     70% 0 mm 0.00 W/m2
02:19 5.1 °C 0.2 °C 1011.7 hPa Calm     71% 0 mm 0.00 W/m2
02:24 5.1 °C 0.2 °C 1011.7 hPa Calm     71% 0 mm 0.00 W/m2
02:29 5 °C 0.2 °C 1011.7 hPa Calm     71% 0 mm 0.00 W/m2
02:34 4.9 °C -0.1 °C 1011.7 hPa Calm     70% 0 mm 0.00 W/m2
02:39 4.9 °C 0.1 °C 1011.7 hPa Calm     71% 0 mm 0.00 W/m2
02:44 4.8 °C 0.2 °C 1011.7 hPa Calm     72% 0 mm 0.00 W/m2
02:49 4.7 °C 0.1 °C 1011.7 hPa Calm     72% 0 mm 0.00 W/m2
02:54 4.5 °C -0.3 °C 1011.4 hPa Calm     71% 0 mm 0.00 W/m2
02:59 4.2 °C -0.6 °C 1011.4 hPa Calm     71% 0 mm 0.00 W/m2
03:04 4 °C -1 °C 1011.4 hPa Calm     70% 0 mm 0.00 W/m2
03:09 3.8 °C -1.3 °C 1011.4 hPa Calm     69% 0 mm 0.00 W/m2
03:14 3.7 °C -1.1 °C 1011.4 hPa Calm     71% 0 mm 0.00 W/m2
03:19 3.7 °C -1.1 °C 1011.4 hPa Calm     71% 0 mm 0.00 W/m2
03:24 3.5 °C -1.4 °C 1011.4 hPa Calm     70% 0 mm 0.00 W/m2
03:29 3.3 °C -1.7 °C 1011.4 hPa Calm     70% 0 mm 0.00 W/m2
03:34 3.2 °C -1.7 °C 1011.4 hPa Calm     70% 0 mm 0.00 W/m2
03:39 3.2 °C -1.7 °C 1011.4 hPa Calm     70% 0 mm 0.00 W/m2
03:44 3.2 °C -1.7 °C 1011.4 hPa Calm     70% 0 mm 0.00 W/m2
03:49 3.1 °C -1.8 °C 1011.4 hPa Calm     70% 0 mm 0.00 W/m2
03:54 3 °C -1.7 °C 1011.4 hPa Calm     71% 0 mm 0.00 W/m2
03:59 2.9 °C -1.6 °C 1011.4 hPa Calm     72% 0 mm 0.00 W/m2
04:04 2.8 °C -1.9 °C 1011.7 hPa Calm     71% 0 mm 0.00 W/m2
04:09 2.7 °C -1.9 °C 1011.7 hPa Calm     72% 0 mm 0.00 W/m2
04:14 2.6 °C -1.9 °C 1011.7 hPa Calm     72% 0 mm 0.00 W/m2
04:19 2.3 °C -2.1 °C 1011.7 hPa Calm     73% 0 mm 0.00 W/m2
04:24 2.1 °C -2.2 °C 1011.7 hPa Calm     73% 0 mm 0.00 W/m2
04:29 1.8 °C -2.3 °C 1011.7 hPa Calm     74% 0 mm 0.00 W/m2
04:34 1.6 °C -2.2 °C 1011.7 hPa Calm     76% 0 mm 0.00 W/m2
04:39 1.5 °C -2.3 °C 1011.7 hPa Calm     76% 0 mm 0.00 W/m2
04:44 1.4 °C -2.3 °C 1011.7 hPa Calm     76% 0 mm 0.00 W/m2
04:49 1.2 °C -2.4 °C 1012.1 hPa Calm     77% 0 mm 0.00 W/m2
04:54 1.1 °C -2.3 °C 1012.1 hPa Calm     78% 0 mm 0.00 W/m2
04:59 1 °C -2.4 °C 1012.1 hPa Calm     78% 0 mm 0.00 W/m2
05:04 1 °C -2.4 °C 1012.1 hPa Calm     78% 0 mm 0.00 W/m2
05:09 1 °C -2.4 °C 1012.4 hPa Calm     78% 0 mm 0.00 W/m2
05:14 1.1 °C -2.3 °C 1012.4 hPa Calm     78% 0 mm 0.00 W/m2
05:19 1.1 °C -2.3 °C 1012.4 hPa Calm     78% 0 mm 0.00 W/m2
05:24 1.1 °C -2.3 °C 1012.4 hPa Calm     78% 0 mm 0.00 W/m2
05:29 1 °C -2.6 °C 1012.8 hPa Calm     77% 0 mm 0.00 W/m2
05:34 1 °C -2.6 °C 1012.8 hPa Calm     77% 0 mm 0.00 W/m2
05:39 1.1 °C -2.6 °C 1012.8 hPa Calm     77% 0 mm 0.00 W/m2
05:44 1.1 °C -2.6 °C 1012.8 hPa Calm     77% 0 mm 0.00 W/m2
05:49 1.1 °C -2.7 °C 1012.8 hPa Calm     76% 0 mm 0.00 W/m2
05:54 1.1 °C -2.7 °C 1012.8 hPa Calm     76% 0 mm 0.00 W/m2
05:59 1.1 °C -2.7 °C 1012.8 hPa Calm     76% 0 mm 0.00 W/m2
06:04 0.9 °C -2.8 °C 1012.8 hPa Calm     76% 0 mm 0.00 W/m2
06:09 0.8 °C -2.9 °C 1012.8 hPa Calm     76% 0 mm 0.00 W/m2
06:14 0.8 °C -2.7 °C 1012.8 hPa Calm     77% 0 mm 49.20 W/m2
06:19 0.8 °C -2.6 °C 1013.1 hPa Calm     78% 0 mm 102.70 W/m2
06:24 0.8 °C -2.6 °C 1012.8 hPa Calm     78% 0 mm 132.00 W/m2
06:29 0.8 °C -2.6 °C 1012.8 hPa Calm     78% 0 mm 140.10 W/m2
06:34 0.9 °C -2.5 °C 1012.8 hPa Calm     78% 0 mm 162.30 W/m2
06:39 0.9 °C -2.4 °C 1013.1 hPa Calm     78% 0 mm 176.40 W/m2
06:44 1 °C -2.4 °C 1013.1 hPa Calm     78% 0 mm 179.50 W/m2
06:49 1.1 °C -2.1 °C 1013.1 hPa Calm     79% 0 mm 184.50 W/m2
06:54 1.2 °C -2.2 °C 1013.4 hPa Calm     78% 0 mm 179.50 W/m2
06:59 1.1 °C -2.3 °C 1013.4 hPa Calm     78% 0 mm 175.40 W/m2
07:04 1.2 °C -2.1 °C 1013.4 hPa Calm     79% 0 mm 176.40 W/m2
07:09 1.2 °C -2 °C 1013.4 hPa Calm     79% 0 mm 190.60 W/m2
07:14 1.3 °C -1.9 °C 1013.4 hPa Calm     79% 0 mm 198.70 W/m2
07:19 1.4 °C -1.8 °C 1013.4 hPa Calm     79% 0 mm 191.60 W/m2
07:24 1.4 °C -1.8 °C 1013.8 hPa Calm     79% 0 mm 188.60 W/m2
07:29 1.3 °C -1.9 °C 1013.8 hPa Calm     79% 0 mm 190.60 W/m2
07:34 1.4 °C -1.8 °C 1013.8 hPa Calm     79% 0 mm 198.70 W/m2
07:39 1.6 °C -1.5 °C 1013.8 hPa Calm     80% 0 mm 201.70 W/m2
07:44 1.7 °C -1.6 °C 1014.1 hPa Calm     79% 0 mm 204.70 W/m2
07:49 1.9 °C -1.3 °C 1014.1 hPa Calm     79% 0 mm 206.70 W/m2
07:54 2.2 °C -1.1 °C 1014.1 hPa Calm     79% 0 mm 207.80 W/m2
07:59 2.5 °C -0.9 °C 1014.1 hPa Calm     78% 0 mm 204.70 W/m2
08:04 2.9 °C -0.7 °C 1014.1 hPa Calm     77% 0 mm 211.80 W/m2
08:09 3.3 °C -0.3 °C 1013.8 hPa Calm     77% 0 mm 213.80 W/m2
08:14 3.9 °C 0.2 °C 1013.8 hPa Calm     77% 0 mm 216.80 W/m2
08:19 4.4 °C 0.5 °C 1014.1 hPa Calm     76% 0 mm 220.90 W/m2
08:24 4.8 °C 0.6 °C 1013.8 hPa Calm     74% 0 mm 216.80 W/m2
08:29 5.2 °C 0.9 °C 1013.8 hPa Calm     74% 0 mm 222.90 W/m2
08:34 5.6 °C 1.1 °C 1013.8 hPa Calm     73% 0 mm 220.90 W/m2
08:39 6.1 °C 1.6 °C 1014.1 hPa Calm     73% 0 mm 225.90 W/m2
08:44 6.6 °C 1.3 °C 1014.1 hPa Calm     69% 0 mm 224.90 W/m2
08:49 7 °C 1.3 °C 1014.1 hPa Calm     67% 0 mm 223.90 W/m2
08:54 7.4 °C 1.1 °C 1014.1 hPa ESE 1.9 km/h   64% 0 mm 225.90 W/m2
08:59 7.8 °C 1.7 °C 1014.1 hPa ESE 3.7 km/h   65% 0 mm 231.00 W/m2
09:04 8.2 °C 1.8 °C 1014.1 hPa Calm     64% 0 mm 242.10 W/m2
09:09 8.5 °C 1.2 °C 1014.1 hPa ESE 5.6 km/h 1.6 km/h 60% 0 mm 238.10 W/m2
09:14 8.9 °C 1.3 °C 1014.1 hPa West 5.6 km/h 2.7 km/h 59% 0 mm 234.00 W/m2
09:19 9.3 °C 1.2 °C 1014.1 hPa West 5.6 km/h 0.3 km/h 57% 0 mm 235.00 W/m2
09:24 9.6 °C 1.5 °C 1014.1 hPa West 3.7 km/h 1.3 km/h 57% 0 mm 238.10 W/m2
09:29 9.7 °C 1.3 °C 1014.1 hPa East 3.7 km/h 2.3 km/h 56% 0 mm 239.10 W/m2
09:34 9.8 °C 1.4 °C 1014.1 hPa NNW 3.7 km/h 2.1 km/h 56% 0 mm 242.10 W/m2
09:39 9.9 °C 1.8 °C 1014.1 hPa West 7.4 km/h 4 km/h 57% 0 mm 258.30 W/m2
09:44 10.1 °C 1.9 °C 1014.1 hPa SW 1.9 km/h   57% 0 mm 257.20 W/m2
09:49 10.3 °C 1.9 °C 1014.1 hPa West 3.7 km/h 1.4 km/h 56% 0 mm 262.30 W/m2
09:54 10.6 °C 1.9 °C 1014.1 hPa NE 3.7 km/h 1.1 km/h 55% 0 mm 258.30 W/m2
09:59 10.8 °C 2.1 °C 1014.1 hPa WNW 5.6 km/h 2.7 km/h 55% 0 mm 248.20 W/m2
10:04 10.8 °C 2.1 °C 1014.1 hPa West 8 km/h 4.5 km/h 55% 0 mm 249.20 W/m2
10:09 10.8 °C 1.6 °C 1014.1 hPa WNW 7.4 km/h 1.6 km/h 53% 0 mm 247.10 W/m2
10:14 10.8 °C 1.6 °C 1014.1 hPa West 5.6 km/h 4.2 km/h 53% 0 mm 253.20 W/m2
10:19 10.9 °C 1.7 °C 1014.1 hPa West 5.6 km/h 3.1 km/h 53% 0 mm 252.20 W/m2
10:24 11.1 °C 1.8 °C 1014.1 hPa WSW 5.6 km/h 5.5 km/h 53% 0 mm 257.20 W/m2
10:29 11.3 °C 1.8 °C 1014.1 hPa West 3.7 km/h 2.4 km/h 52% 0 mm 257.20 W/m2
10:34 11.5 °C 2 °C 1014.1 hPa Calm     52% 0 mm 251.20 W/m2
10:39 11.7 °C 1.9 °C 1014.1 hPa North 1.9 km/h 0.5 km/h 51% 0 mm 255.20 W/m2
10:44 11.9 °C 2.1 °C 1014.4 hPa WSW 5.6 km/h 0.5 km/h 51% 0 mm 254.20 W/m2
10:49 12.3 °C 2.4 °C 1014.1 hPa WNW 3.7 km/h 1.6 km/h 51% 0 mm 261.30 W/m2
10:54 12.6 °C 2.7 °C 1014.1 hPa West 5.6 km/h 0.3 km/h 51% 0 mm 292.60 W/m2
10:59 12.8 °C 2.9 °C 1014.1 hPa West 1.9 km/h 0.3 km/h 51% 0 mm 322.90 W/m2
11:04 13.2 °C 2.7 °C 1014.4 hPa West 3.7 km/h 1.6 km/h 49% 0 mm 413.80 W/m2
11:09 13.7 °C 2.9 °C 1014.1 hPa West 1.9 km/h 0.8 km/h 48% 0 mm 444.10 W/m2
11:14 14 °C 2.6 °C 1014.1 hPa WNW 3.2 km/h 1.9 km/h 46% 0 mm 629.90 W/m2
11:19 14.3 °C 2.6 °C 1014.1 hPa West 1.9 km/h   45% 0 mm 689.50 W/m2
11:24 14.7 °C 2.6 °C 1014.1 hPa WNW 5.6 km/h 1.8 km/h 44% 0 mm 689.50 W/m2
11:29 15.1 °C 2.6 °C 1014.1 hPa West 1.9 km/h 0.3 km/h 43% 0 mm 763.30 W/m2
11:34 15.5 °C 2.6 °C 1014.1 hPa NNW 5.6 km/h 1.3 km/h 42% 0 mm 788.50 W/m2
11:39 15.6 °C 2.7 °C 1014.1 hPa NNW 1.9 km/h   42% 0 mm 792.50 W/m2
11:44 15.3 °C 2.5 °C 1014.1 hPa ESE 5.6 km/h 1.4 km/h 42% 0 mm 797.60 W/m2
11:49 15.4 °C 2.9 °C 1014.1 hPa WSW 5.6 km/h 4.2 km/h 43% 0 mm 814.80 W/m2
11:54 15.8 °C 3.6 °C 1014.1 hPa WSW 1.9 km/h   44% 0 mm 812.70 W/m2
11:59 16.2 °C 2.6 °C 1014.1 hPa SSW 9.3 km/h 2.9 km/h 40% 0 mm 814.80 W/m2
12:04 16.4 °C 2 °C 1014.1 hPa WNW 5.6 km/h 0.3 km/h 38% 0 mm 824.90 W/m2
12:09 16.6 °C 2.9 °C 1013.8 hPa South 3.7 km/h 2.4 km/h 40% 0 mm 826.90 W/m2
12:14 16.7 °C 2.6 °C 1014.1 hPa West 6.4 km/h 4.8 km/h 39% 0 mm 830.90 W/m2
12:19 16.8 °C 3.1 °C 1014.1 hPa NNW 5.6 km/h 1.1 km/h 40% 0 mm 839.00 W/m2
12:24 17 °C 3.3 °C 1014.1 hPa West 1.9 km/h 1.1 km/h 40% 0 mm 841.00 W/m2
12:29 17.3 °C 3.2 °C 1014.1 hPa WNW 3.7 km/h 2.7 km/h 39% 0 mm 842.00 W/m2
12:34 17.3 °C 2.4 °C 1014.1 hPa NNE 5.6 km/h 3.9 km/h 37% 0 mm 847.10 W/m2
12:39 16.9 °C 2.1 °C 1014.1 hPa North 7.4 km/h 3.2 km/h 37% 0 mm 847.10 W/m2
12:44 16.8 °C 2.4 °C 1014.1 hPa NW 3.7 km/h   38% 0 mm 855.20 W/m2
12:49 16.9 °C 2.5 °C 1014.1 hPa NE 5.6 km/h 3.4 km/h 38% 0 mm 853.10 W/m2
12:54 17.1 °C 2.2 °C 1014.1 hPa West 5.6 km/h 2.7 km/h 37% 0 mm 857.20 W/m2
12:59 17.2 °C 2.3 °C 1014.1 hPa NNE 5.6 km/h 2.6 km/h 37% 0 mm 854.20 W/m2
13:04 17.2 °C 2.4 °C 1014.1 hPa WNW 7.4 km/h 3.1 km/h 37% 0 mm 857.20 W/m2
13:09 17.4 °C 1.8 °C 1014.1 hPa WSW 5.6 km/h 3.7 km/h 35% 0 mm 861.20 W/m2
13:14 17.6 °C 1.5 °C 1014.1 hPa SW 11.1 km/h 4.2 km/h 34% 0 mm 858.20 W/m2
13:19 17.6 °C 1.9 °C 1014.1 hPa WSW 5.6 km/h 0.3 km/h 35% 0 mm 863.20 W/m2
13:24 17.5 °C 1.8 °C 1014.1 hPa West 9.3 km/h 3.2 km/h 35% 0 mm 417.80 W/m2
13:29 17.6 °C 1.9 °C 1014.1 hPa WNW 7.4 km/h 5.6 km/h 35% 0 mm 417.80 W/m2
13:34 17.6 °C 1.9 °C 1014.1 hPa West 5.6 km/h 1.3 km/h 35% 0 mm 317.80 W/m2
13:39 17.7 °C 2 °C 1014.1 hPa NNE 7.4 km/h 1.8 km/h 35% 0 mm 346.10 W/m2
13:44 17.6 °C 1.1 °C 1014.1 hPa West 7.4 km/h 6.1 km/h 33% 0 mm 855.20 W/m2
13:49 17.6 °C 0.7 °C 1014.1 hPa WNW 9.3 km/h 6.8 km/h 32% 0 mm 376.40 W/m2
13:54 17.7 °C 1.7 °C 1014.1 hPa SW 5.6 km/h 2.6 km/h 34% 0 mm 376.40 W/m2
13:59 17.8 °C 0.8 °C 1014.1 hPa SW 11.1 km/h 4.8 km/h 32% 0 mm 324.90 W/m2
14:04 17.5 °C 0.2 °C 1014.1 hPa WSW 5.6 km/h 5.1 km/h 31% 0 mm 288.60 W/m2
14:09 17.3 °C 0.4 °C 1014.1 hPa WSW 7.4 km/h 4.5 km/h 32% 0 mm 285.50 W/m2
14:14 17.3 °C 0 °C 1014.1 hPa NNW 3.7 km/h 2.4 km/h 31% 0 mm 284.50 W/m2
14:19 17.3 °C -0.4 °C 1014.1 hPa WSW 8 km/h 4.7 km/h 30% 0 mm 285.50 W/m2
14:24 17.2 °C -0.1 °C 1014.1 hPa NNE 11.1 km/h 7.4 km/h 31% 0 mm 282.50 W/m2
14:29 17.2 °C 0.4 °C 1014.1 hPa SW 7.4 km/h 4.7 km/h 32% 0 mm 285.50 W/m2
14:34 17.2 °C -0.6 °C 1014.1 hPa NNW 5.6 km/h 5.1 km/h 30% 0 mm 280.50 W/m2
14:39 17.3 °C 0.4 °C 1014.1 hPa NNE 5.6 km/h 1.4 km/h 32% 0 mm 277.40 W/m2
14:44 17.3 °C -0.5 °C 1014.1 hPa West 12.9 km/h 4.5 km/h 30% 0 mm 281.50 W/m2
14:49 17.4 °C 0.5 °C 1014.1 hPa NE 7.4 km/h 2.6 km/h 32% 0 mm 306.70 W/m2
14:54 17.4 °C 0.6 °C 1014.1 hPa SSE 5.6 km/h 2.1 km/h 32% 0 mm 314.80 W/m2
14:59 17.6 °C 0.3 °C 1014.1 hPa WNW 5.6 km/h 3.2 km/h 31% 0 mm 287.50 W/m2
15:04 17.8 °C -0.5 °C 1014.1 hPa WSW 13 km/h 1.8 km/h 29% 0 mm 291.60 W/m2
15:09 17.9 °C -0.4 °C 1014.1 hPa WSW 5.6 km/h 3.2 km/h 29% 0 mm 287.50 W/m2
15:14 18.1 °C -0.3 °C 1014.1 hPa NW 5.6 km/h 2.4 km/h 29% 0 mm 333.00 W/m2
15:19 18.2 °C -0.7 °C 1014.1 hPa WSW 5.6 km/h 4.7 km/h 28% 0 mm 828.90 W/m2
15:24 18.2 °C -0.1 °C 1014.1 hPa North 5.6 km/h 5.1 km/h 29% 0 mm 870.30 W/m2
15:29 18.3 °C -0.1 °C 1013.8 hPa West 5.6 km/h 2.4 km/h 29% 0 mm 810.70 W/m2
15:34 18.2 °C -0.1 °C 1013.8 hPa SSW 5.6 km/h 6 km/h 29% 0 mm 814.80 W/m2
15:39 18.2 °C -0.6 °C 1013.8 hPa NW 11.1 km/h 4 km/h 28% 0 mm 673.40 W/m2
15:44 18.3 °C -0.6 °C 1013.8 hPa SW 7.4 km/h 2.4 km/h 28% 0 mm 441.10 W/m2
15:49 18.2 °C 0.3 °C 1013.8 hPa North 4.8 km/h 3.5 km/h 30% 0 mm 849.10 W/m2
15:54 18.2 °C -0.1 °C 1013.8 hPa SW 11.1 km/h 4.7 km/h 29% 0 mm 819.80 W/m2
15:59 18.2 °C 0.3 °C 1013.8 hPa WSW 3.2 km/h 2.9 km/h 30% 0 mm 842.00 W/m2
16:04 18.3 °C -0.1 °C 1013.8 hPa WSW 5.6 km/h 3.2 km/h 29% 0 mm 823.80 W/m2
16:09 18.3 °C -0.5 °C 1014.1 hPa West 5.6 km/h 1.6 km/h 28% 0 mm 880.40 W/m2
16:14 18.5 °C -0.9 °C 1013.8 hPa NW 8 km/h 3.2 km/h 27% 0 mm 635.00 W/m2
16:19 18.7 °C 0.8 °C 1013.8 hPa WNW 1.9 km/h   30% 0 mm 851.10 W/m2
16:24 18.8 °C 1.3 °C 1013.8 hPa Calm     31% 0 mm 866.30 W/m2
16:29 19.1 °C 0.1 °C 1014.1 hPa West 8 km/h 5.5 km/h 28% 0 mm 871.30 W/m2
16:34 19.3 °C 0.3 °C 1014.1 hPa NW 5.6 km/h 1.8 km/h 28% 0 mm 873.30 W/m2
16:39 19.6 °C 0.1 °C 1014.1 hPa SSW 1.9 km/h 0.2 km/h 27% 0 mm 870.30 W/m2
16:44 19.6 °C 0.1 °C 1014.1 hPa WSW 9.7 km/h 3.7 km/h 27% 0 mm 871.30 W/m2
16:49 19.4 °C -0.1 °C 1014.1 hPa WSW 3.7 km/h 0.5 km/h 27% 0 mm 855.20 W/m2
16:54 19.1 °C -0.4 °C 1014.1 hPa SW 9.7 km/h 5.1 km/h 27% 0 mm 342.10 W/m2
16:59 19 °C -0.9 °C 1014.1 hPa SW 7.4 km/h 0.2 km/h 26% 0 mm 868.30 W/m2
17:04 19.3 °C -0.7 °C 1014.1 hPa SW 1.9 km/h 0.2 km/h 26% 0 mm 868.30 W/m2
17:09 19.4 °C -0.1 °C 1014.1 hPa SW 1.9 km/h   27% 0 mm 866.30 W/m2
17:14 19.6 °C -0.5 °C 1014.1 hPa SSW 5.6 km/h 4.2 km/h 26% 0 mm 862.20 W/m2
17:19 19.6 °C -1.6 °C 1014.1 hPa WNW 9.3 km/h 3.7 km/h 24% 0 mm 855.20 W/m2
17:24 19.8 °C -1.3 °C 1014.1 hPa WNW 3.7 km/h 1.1 km/h 24% 0 mm 854.20 W/m2
17:29 19.9 °C -1.3 °C 1014.1 hPa West 3.7 km/h 0.5 km/h 24% 0 mm 854.20 W/m2
17:34 19.9 °C -1.3 °C 1014.1 hPa Calm   0.2 km/h 24% 0 mm 856.20 W/m2
17:39 20 °C -1.2 °C 1014.1 hPa NNW 6.4 km/h 2.6 km/h 24% 0 mm 848.10 W/m2
17:44 19.8 °C 0.3 °C 1014.1 hPa WSW 5.6 km/h 0.2 km/h 27% 0 mm 838.00 W/m2
17:49 19.8 °C -0.8 °C 1014.1 hPa West 3.7 km/h 0.5 km/h 25% 0 mm 831.90 W/m2
17:54 19.6 °C -1.6 °C 1014.1 hPa SW 5.6 km/h 3.2 km/h 24% 0 mm 814.80 W/m2
17:59 19.3 °C -1.8 °C 1014.4 hPa West 11.1 km/h 2.3 km/h 24% 0 mm 334.00 W/m2
18:04 18.9 °C -1.1 °C 1014.4 hPa West 3.2 km/h 1.3 km/h 26% 0 mm 317.80 W/m2
18:09 18.5 °C -1.4 °C 1014.4 hPa NW 3.7 km/h 1.3 km/h 26% 0 mm 313.80 W/m2
18:14 18.4 °C -1.5 °C 1014.4 hPa West 3.7 km/h 0.5 km/h 26% 0 mm 306.70 W/m2
18:19 18.3 °C -1.6 °C 1014.4 hPa WSW 3.7 km/h 0.5 km/h 26% 0 mm 309.80 W/m2
18:24 18.2 °C -1.6 °C 1014.4 hPa West 5.6 km/h 1.8 km/h 26% 0 mm 303.70 W/m2
18:29 18.2 °C -2.2 °C 1014.4 hPa West 3.7 km/h   25% 0 mm 292.60 W/m2
18:34 18.1 °C -0.7 °C 1014.4 hPa West 1.9 km/h   28% 0 mm 285.50 W/m2
18:39 18 °C -2.3 °C 1014.4 hPa West 1.9 km/h 0.5 km/h 25% 0 mm 282.50 W/m2
18:44 17.9 °C -0.4 °C 1014.4 hPa Calm   0.2 km/h 29% 0 mm 338.00 W/m2
18:49 17.7 °C -2.1 °C 1014.4 hPa West 3.7 km/h 1.1 km/h 26% 0 mm 335.00 W/m2
18:54 17.6 °C -1.2 °C 1014.4 hPa West 1.9 km/h 0.2 km/h 28% 0 mm 274.40 W/m2
18:59 17.3 °C -0.9 °C 1014.4 hPa Calm     29% 0 mm 273.40 W/m2
19:04 17.1 °C -1.6 °C 1014.4 hPa West 1.9 km/h   28% 0 mm 265.30 W/m2
19:09 16.7 °C -1.4 °C 1014.4 hPa West 1.9 km/h 0.3 km/h 29% 0 mm 260.30 W/m2
19:14 16.4 °C -1.7 °C 1014.4 hPa NNE 3.7 km/h   29% 0 mm 257.20 W/m2
19:19 16.2 °C -0.5 °C 1014.4 hPa NNW 5.6 km/h 1.9 km/h 32% 0 mm 252.20 W/m2
19:24 16 °C -0.7 °C 1014.4 hPa Calm     32% 0 mm 247.10 W/m2
19:29 15.8 °C -0.5 °C 1014.4 hPa Calm     33% 0 mm 238.10 W/m2
19:34 15.4 °C -0.4 °C 1014.4 hPa Calm     34% 0 mm 226.90 W/m2
19:39 15.1 °C -0.7 °C 1014.4 hPa Calm     34% 0 mm 224.90 W/m2
19:44 14.7 °C -0.2 °C 1014.4 hPa Calm     36% 0 mm 209.80 W/m2
19:49 14.3 °C -0.2 °C 1014.8 hPa Calm     37% 0 mm 190.60 W/m2
19:54 14 °C -0.1 °C 1014.8 hPa Calm     38% 0 mm 177.40 W/m2
19:59 13.7 °C 0.3 °C 1014.8 hPa Calm     40% 0 mm 147.20 W/m2
20:04 13.3 °C 0.6 °C 1014.8 hPa NNW 1.9 km/h 1.1 km/h 42% 0 mm 108.80 W/m2
20:09 12.6 °C -1.1 °C 1014.8 hPa NNW 1.9 km/h   39% 0 mm 60.30 W/m2
20:14 12.1 °C -0.1 °C 1015.1 hPa Calm     43% 0 mm 0.00 W/m2
20:19 11.8 °C -0.1 °C 1015.1 hPa Calm     44% 0 mm 0.00 W/m2
20:24 11.5 °C -0.3 °C 1015.1 hPa Calm     44% 0 mm 0.00 W/m2
20:29 11.3 °C 0.1 °C 1015.1 hPa Calm     46% 0 mm 0.00 W/m2
20:34 11 °C 0.1 °C 1015.1 hPa Calm     47% 0 mm 0.00 W/m2
20:39 10.8 °C 0.2 °C 1015.1 hPa Calm     48% 0 mm 0.00 W/m2
20:44 10.4 °C 0.1 °C 1015.5 hPa Calm     49% 0 mm 0.00 W/m2
20:49 10.1 °C -0.7 °C 1015.5 hPa NNW 1.9 km/h   47% 0 mm 0.00 W/m2
20:54 9.7 °C 0.1 °C 1015.5 hPa Calm     51% 0 mm 0.00 W/m2
20:59 9.3 °C -0.9 °C 1015.5 hPa Calm     49% 0 mm 0.00 W/m2
21:04 8.9 °C 0.1 °C 1015.5 hPa Calm     54% 0 mm 0.00 W/m2
21:09 8.7 °C 0.2 °C 1015.5 hPa Calm     55% 0 mm 0.00 W/m2
21:14 8.5 °C -0.1 °C 1015.8 hPa Calm     55% 0 mm 0.00 W/m2
21:19 8.3 °C -0.7 °C 1015.8 hPa Calm     53% 0 mm 0.00 W/m2
21:24 8.2 °C -0.8 °C 1015.8 hPa Calm     53% 0 mm 0.00 W/m2
21:29 8.1 °C -0.4 °C 1015.8 hPa Calm     55% 0 mm 0.00 W/m2
21:34 7.9 °C -0.8 °C 1015.8 hPa Calm     54% 0 mm 0.00 W/m2
21:39 7.6 °C -1.1 °C 1015.8 hPa Calm     54% 0 mm 0.00 W/m2
21:44 7.4 °C -0.8 °C 1015.8 hPa Calm     56% 0 mm 0.00 W/m2
21:49 7.2 °C -1.1 °C 1015.8 hPa Calm     56% 0 mm 0.00 W/m2
21:54 7 °C -0.7 °C 1015.8 hPa Calm     58% 0 mm 0.00 W/m2
21:59 6.8 °C -1.2 °C 1015.8 hPa Calm     57% 0 mm 0.00 W/m2
22:04 6.6 °C -0.8 °C 1015.8 hPa Calm     59% 0 mm 0.00 W/m2
22:08 6.4 °C -1 °C 1015.8 hPa Calm     59% 0 mm 0.00 W/m2
22:19 6.1 °C -0.6 °C 1015.8 hPa Calm     62% 0 mm 0.00 W/m2
22:24 5.9 °C -0.3 °C 1015.8 hPa Calm     64% 0 mm 0.00 W/m2
22:29 5.8 °C -0.2 °C 1015.8 hPa Calm     65% 0 mm 0.00 W/m2
22:34 5.8 °C -0.1 °C 1015.8 hPa Calm     66% 0 mm 0.00 W/m2
22:39 5.7 °C -0.2 °C 1015.8 hPa Calm     66% 0 mm 0.00 W/m2
22:44 5.6 °C -0.4 °C 1015.8 hPa Calm     65% 0 mm 0.00 W/m2
22:49 5.3 °C -0.5 °C 1015.8 hPa Calm     66% 0 mm 0.00 W/m2
22:54 5 °C -0.6 °C 1015.8 hPa Calm     67% 0 mm 0.00 W/m2
22:57 5 °C -0.4 °C 1015.8 hPa Calm     68% 0 mm 0.00 W/m2
23:04 4.8 °C -0.6 °C 1015.8 hPa Calm     68% 0 mm 0.00 W/m2
23:09 4.6 °C -0.7 °C 1015.8 hPa Calm     69% 0 mm 0.00 W/m2
23:14 4.5 °C -0.7 °C 1015.8 hPa Calm     69% 0 mm 0.00 W/m2
23:19 4.3 °C -0.8 °C 1015.8 hPa Calm     69% 0 mm 0.00 W/m2
23:24 4.2 °C -1 °C 1015.8 hPa Calm     69% 0 mm 0.00 W/m2
23:25 4.1 °C -1.1 °C 1015.8 hPa Calm     69% 0 mm 0.00 W/m2
23:34 3.9 °C -1.1 °C 1015.8 hPa Calm     70% 0 mm 0.00 W/m2
23:39 3.5 °C -1.1 °C 1016.1 hPa Calm     72% 0 mm 0.00 W/m2
23:44 3.3 °C -1.2 °C 1016.1 hPa Calm     72% 0 mm 0.00 W/m2
23:49 3.3 °C -1.1 °C 1016.1 hPa Calm     73% 0 mm 0.00 W/m2
23:54 3.3 °C -1.1 °C 1016.1 hPa Calm     73% 0 mm 0.00 W/m2
23:59 3.3 °C -0.9 °C 1016.1 hPa Calm     74% 0 mm 0.00 W/m2
Winter, Wisconsin USA
Compliments of Weather Underground - 4 mb